This is the latest recevied weather packets stored in our database for station/object KB1FFS. If no packets are shown the sender has not sent any weather packets the latest 10 day(s).
| Time | Temp. | Humidity | Pressure | Rain* | Wind** | Luminosity | Snow |
|---|---|---|---|---|---|---|---|
| 1787952211 | 38.89° C | 31% | 1016.1 hPa | 0 mm | - | 553 W/m² | - |
| 1787951908 | 38.89° C | 31% | 1016.3 hPa | 0 mm | - | 573 W/m² | - |
| 1787951604 | 38.89° C | 32% | 1016.4 hPa | 0 mm | - | 596 W/m² | - |
| 1787951300 | 40° C | 32% | 1016.4 hPa | 0 mm | - | 640 W/m² | - |
| 1787950995 | 40° C | 32% | 1016.4 hPa | 0 mm | - | 642 W/m² | - |
| 1787950690 | 40° C | 31% | 1016.4 hPa | 0 mm | - | 635 W/m² | - |
| 1787950387 | 40° C | 31% | 1016.7 hPa | 0 mm | - | 625 W/m² | - |
| 1787950083 | 40° C | 30% | 1016.7 hPa | 0 mm | - | 635 W/m² | - |
| 1787949778 | 40° C | 30% | 1016.9 hPa | 0 mm | - | 654 W/m² | - |
| 1787949477 | 40° C | 32% | 1017 hPa | 0 mm | - | 667 W/m² | - |
| 1787949172 | 39.44° C | 30% | 1017.3 hPa | 0 mm | - | 675 W/m² | - |
| 1787948868 | 39.44° C | 28% | 1017.3 hPa | 0 mm | - | 663 W/m² | - |
| 1787948563 | 40° C | 29% | 1017.3 hPa | 0 mm | - | 683 W/m² | - |
| 1787948259 | 40.56° C | 30% | 1017.4 hPa | 0 mm | - | 713 W/m² | - |
| 1787947958 | 40° C | 30% | 1017.6 hPa | 0 mm | - | 717 W/m² | - |
| 1787947658 | 40° C | 30% | 1017.5 hPa | 0 mm | - | 705 W/m² | - |
| 1787947357 | 39.44° C | 30% | 1017.7 hPa | 0 mm | - | 720 W/m² | - |
| 1787947056 | 39.44° C | 30% | 1017.8 hPa | 0 mm | - | 722 W/m² | - |
| 1787946755 | 39.44° C | 29% | 1017.8 hPa | 0 mm | - | 731 W/m² | - |
| 1787946454 | 39.44° C | 30% | 1017.7 hPa | 0 mm | - | 740 W/m² | - |
| 1787946150 | 39.44° C | 31% | 1017.8 hPa | 0 mm | - | 744 W/m² | - |
| 1787945844 | 39.44° C | 31% | 1018 hPa | 0 mm | - | 748 W/m² | - |
| 1787945540 | 39.44° C | 32% | 1018.1 hPa | 0 mm | - | 754 W/m² | - |
| 1787945235 | 38.89° C | 33% | 1018 hPa | 0 mm | - | 762 W/m² | - |
| 1787944934 | 38.89° C | 32% | 1018.2 hPa | 0 mm | - | 744 W/m² | - |
* Rain latest hour (hover to see other rain measurements)
** Current wind speed in m/s (hover to see current wind gust speed)